Location: Robledo de Chavela
(40.5014°N, 4.2377°W)
Time: 09:44:52
(UTC+00:00)

Okean 1 Rocket - Visible Passes

Search period start: 24 July 2024 00:00
Search period end: 03 August 2024 00:00
Orbit: 604 x 629 km, 82.5° (Epoch: 23 July)

Date Brightness Start Highest point End Pass type
(mag) Time Alt. Az. Time Alt. Az. Time Alt. Az.
24 Jul 5.0 20:22:02 10° NNW 20:25:58 31° W 20:29:52 10° SSW visible
25 Jul 5.9 20:39:28 10° NW 20:42:22 17° W 20:45:16 10° SW visible
29 Jul 6.0 20:08:09 10° NW 20:11:05 17° W 20:14:01 10° SW visible
